User: anonymous   Login
Location: La Pernelle
(49.6188°N, 1.2999°W)
Time: 20:27:48
(UTC+00:00)
Language:

Cosmos 1513 Rocket - Orbit

View from above orbital plane
View from above orbital plane
View from above satellite
View from above satellite

Ground track
Ground track

The orbit data is extracted from the following two-line orbital elements,

1 14547U 83120B   21270.55128587  .00000055  00000-0  39740-4 0  9995
2 14547  82.9361   7.8974 0047155 169.7752 190.4376 13.77141965655376
Epoch (UTC): 27 September 2021 13:13:51
Eccentricity: 0.0047155
inclination: 82.9361°
perigee height: 939 km
apogee height: 1009 km
right ascension of ascending node: 7.8974°
argument of perigee: 169.7752°
revolutions per day: 13.77141965
mean anomaly at epoch: 190.4376°
orbit number at epoch: 65537

The dashed part of the orbit path shows where the satellite is in the earth's shadow,  

DLR